Regional Weather Roundup
Issued by NWS

Home | Current Version | Previous Version | Text Only | Print | Product List | Glossary On
Versions: 1 2 3 4 5 6 7 8 9 10 11 12 13 14 15 16 17 18 19 20 21 22 23 24 25 26 27 28 29 30 31 32 33 34 35 36 37 38 39 40 41 42 43 44 45 46 47 48 49 50
852
ASUS43 KMKX 081711
RWRWI

WISCONSIN REGIONAL WEATHER ROUNDUP
NATIONAL WEATHER SERVICE MILWAUKEE/SULLIVAN WI
1100 AM CST MON FEB 08 2016

NOTE: "FAIR" INDICATES FEW OR NO CLOUDS BELOW 12,000 FEET WITH NO
SIGNIFICANT WEATHER AND/OR OBSTRUCTIONS TO VISIBILITY.

WIZ001-002-006>008-014>016-023>028-081800-
NORTHWEST WISCONSIN

CITY           SKY/WX    TMP DP  RH WIND       PRES   REMARKS
SUPERIOR ARPT  CLOUDY    13   4  66 NW18G26   29.91S WCI  -5
ASHLAND        LGT SNOW  19  12  74 NW8       29.84R WCI   9
HAYWARD        LGT SNOW  13   5  70 VRB6      29.83R WCI   4
SIREN          FLURRIES  13   3  66 NW10      29.90S WCI  -1
CUMBERLAND     FLURRIES  12   3  67 NW18      29.84S WCI  -5
RICE LAKE      LGT SNOW  13   6  72 NW10      29.86R WCI   0
CHETEK         LGT SNOW  13   6  72 NW6       29.84S WCI   4
LADYSMITH      LGT SNOW  16  10  76 NW15      29.80S WCI   1
EAU CLAIRE     CLOUDY    16   6  65 NW13      29.83R WCI   2
MENOMONIE      FLURRIES  17   6  62 NW18      29.86R WCI   0
NEW RICHMOND   CLOUDY    12   3  67 NW22      29.90R HAZE    WCI  -7
OSCEOLA        CLOUDY    12   4  68 NW15G22   29.95R WCI  -4
$$

WIZ003>005-009-010-017-018-081800-
NORTH CENTRAL WISCONSIN

CITY           SKY/WX    TMP DP  RH WIND       PRES   REMARKS
MANITOWISH WTR LGT SNOW  18  13  79 N9G18     29.70R WCI   7
ARBOR VITAE    LGT SNOW  22  17  81 N14       29.69S WCI   9
WOODRUFF       LGT SNOW  22  17  81 N14       29.69S WCI   9
RHINELANDER    CLOUDY    21  15  78 N8        29.68R WCI  11
EAGLE RIVER    CLOUDY    20  12  71 N10G21    29.67S WCI   9
LAND O LAKES   LGT SNOW  19  14  80 N13       29.69R WCI   7
PHILLIPS       FLURRIES  18  13  82 N10       29.73R WCI   6
TOMAHAWK       CLOUDY    20  16  84 NW14      29.70R WCI   7
MEDFORD        CLOUDY    18  14  86 NW18G24   29.70R FOG     WCI   2
MERRILL        CLOUDY    23  18  80 N14       29.69R WCI  11
$$

WIZ029-030-035-036-043>047-081800-
CENTRAL WISCONSIN

CITY           SKY/WX    TMP DP  RH WIND       PRES   REMARKS
WAUSAU         CLOUDY    26  17  68 NW15G22   29.66R WCI  14
MOSINEE        CLOUDY    25  19  80 NW17      29.68R WCI  11
MARSHFIELD     CLOUDY    19  11  70 NW18      29.70R WCI   4
STEVENS POINT  CLOUDY    25  18  74 NW10      29.68R WCI  15
WAUPACA        FLURRIES  29  21  73 W7        29.67R WCI  22
WAUTOMA        CLOUDY    24  17  74 NW9       29.69R WCI  14
WISC RAPIDS    CLOUDY    22  13  68 NW12      29.72R WCI  10
CAMP DOUGLAS   CLOUDY    19  16  86 NW16      29.74R WCI   5
$$

WIZ011>013-019>022-031-037>040-048>050-081800-
NORTHEAST WISCONSIN

CITY           SKY/WX    TMP DP  RH WIND       PRES   REMARKS
ANTIGO         CLOUDY    23  18  80 N13       29.64R WCI  11
SHAWANO        CLOUDY    34  26  74 NW9       29.64S WCI  26
OCONTO         CLOUDY    33  33 100 N10       29.63R WCI  25
STURGEON BAY   CLOUDY    34  28  80 N8        29.64R WCI  27
GREEN BAY      FLURRIES  31  25  78 NW12      29.63S WCI  22
MANITOWOC      MIX PCPN  32  28  85 W9        29.64R WCI  24
APPLETON       CLOUDY    27  19  74 W13       29.63R WCI  16
CLINTONVILLE   CLOUDY    30  23  74 NW8       29.64S WCI  23
OSHKOSH        CLOUDY    25  18  74 W15       29.65R WCI  13
$$

WIZ032>034-041-042-053>061-081800-
SOUTHWEST WISCONSIN

CITY           SKY/WX    TMP DP  RH WIND       PRES   REMARKS
LA CROSSE      CLOUDY    18   9  68 NW21      29.82R WCI   1
SPARTA         CLOUDY    19  12  76 NW12      29.80R WCI   6
VIROQUA        CLOUDY    17  12  78 NW15      29.75R WCI   3
BOSCOBEL       CLOUDY    21  12  68 N10       29.79R WCI  10
PRAIRIE DU CHI CLOUDY    20  10  66 NW14      29.80S WCI   7
PLATTEVILLE    CLOUDY    20  15  79 NW14      29.74R WCI   7
$$

WIZ056-057-062-063-064-067-068-081800-
SOUTH CENTRAL WISCONSIN

CITY           SKY/WX    TMP DP  RH WIND       PRES   REMARKS
REEDSBURG      CLOUDY    20  14  76 NW10G17   29.72S WCI   9
BARABOO/DELLS  CLOUDY    21  14  73 NW9G17    29.71S WCI  11
LONE ROCK      CLOUDY    22  13  68 NW10      29.75R WCI  11
MINERAL POINT  CLOUDY    23  16  74 NW13G21   29.71S WCI  11
MADISON        FLURRIES  22  15  75 NW9G21    29.70R WCI  12
MIDDLETON      CLOUDY    23  16  74 NW13      29.70S WCI  12
WATERTOWN      CLOUDY    24  19  81 W12G18    29.68R WCI  12
MONROE         CLOUDY    23  18  80 NW10G21   29.69R WCI  12
JANESVILLE     CLOUDY    25  19  80 NW15      29.69R WCI  12
$$

WIZ051-052-058>065-066-070>072-081800-
SOUTHEAST WISCONSIN

CITY           SKY/WX    TMP DP  RH WIND       PRES   REMARKS
MILWAUKEE      CLOUDY    30  24  78 NW13      29.65R WCI  20
WAUKESHA       CLOUDY    23  19  86 W14       29.66S WCI  11
MILWAUKEE/TIMM LGT SNOW  27  21  80 NW14      29.66R WCI  15
RACINE         CLOUDY    29  22  75 NW15      29.66R WCI  18
BURLINGTON     CLOUDY    25  20  80 NW13      29.67R WCI  14
KENOSHA        CLOUDY    30  24  78 NW10      29.65R WCI  21
FOND DU LAC    CLOUDY    25  18  74 NW12      29.66R WCI  14
SHEBOYGAN      CLOUDY    28  21  75 NW14      29.64R WCI  17
WEST BEND      CLOUDY    27  21  80 W13       29.65R WCI  16
JUNEAU         SNOW      21  19  90 W6        29.68R VSB 1/4 WCI  14
$$

LSZ147-162-081800-
LAKE SUPERIOR

STATION/POSITION TIME  TEMP    WIND        PRES    WAVE
                       AIR SEA DIR/SP/G            HT/PER
                 (UTC) (F)     (DEG/KT/KT) (MB)    (FT/S)
DEVILS ISLAND    1700   15     330/ 14/ 17 1011.9R
PORT WING        1600   17     320/ 15/ 20 1011.5R
SAXON HARBOR     1600   19                 1009.5
$$

LMZ867-665-643>646-081800-
LAKE MICHIGAN

STATION/POSITION TIME  TEMP    WIND        PRES    WAVE
                       AIR SEA DIR/SP/G            HT/PER
                 (UTC) (F)     (DEG/KT/KT) (MB)    (FT/S)
CHAMBERS ISLAND  1600   33     360/  5/  6 1003.4R
NORTHPORT PIER   1600   33     350/ 10/ 12 1003.0R
ALGOMA LAKESHORE 1641          320/  8/ 10   N/A
KEWAUNEE LAKESHO 1600   33     290/  7/ 11 1002.0R
SHEBOYGAN LAKESH 1700   28     290/ 16/ 18 1004.4R
PORT WASHINGTON  1640   28     290/  8/ 14 1004.7R
MILWAUKEE LAKESH 1610   29     290/  9/ 11   N/A
KENOSHA   LAKESH 1700   30     310/ 11/ 15 1004.4R
$$

TC  - TEMPERATURE IN CELSIUS
VSB - VISIBILITY IN STATUTE MILES
WCI - WIND CHILL INDEX
HX  - HEAT INDEX





USA.gov is the U.S. government's official web portal to all federal, state and local government web resources and services.